Location: Doux
(49.5045°N, 4.4321°E)
Time: 14:47:34
(UTC+00:00)

Cosmos 2322 Rocket - Pass Details

Date: 23 May 2024
Orbit: 832 x 850 km, 71.0° (Epoch: 16 June)

Event Time Altitude Azimuth Distance (km) Brightness Sun altitude
Rises 02:34:47 0° 326° (NW) 3,402 5.5 -9.8°
Reaches altitude 10° 02:37:22 10° 319° (NW) 2,466 4.7 -9.5°
Maximum altitude 02:42:32 38° 253° (WSW) 1,266 2.7 -8.9°
Drops below altitude 10° 02:47:42 10° 186° (S) 2,461 4.2 -8.3°
Sets 02:50:17 0° 179° (S) 3,394 4.9 -8.0°
